Location: *
(46.1006°N, 1.8394°E)
Time: 01:12:45
(UTC+00:00)

DMSP B5D1-3 - Pass Details

Date: 20 September 2019
Orbit: 767 x 781 km, 98.5° (Epoch: 12 October)

Event Time Altitude Azimuth Distance (km) Brightness Sun altitude
Rises 18:26:24 0° 16° (NNE) 3,248 7.7 -6.3°
Reaches altitude 10° 18:28:45 10° 20° (NNE) 2,316 6.9 -6.7°
Maximum altitude 18:33:49 65° 102° (ESE) 844 4.5 -7.5°
Drops below altitude 10° 18:38:52 10° 184° (S) 2,302 6.9 -8.4°
Sets 18:41:11 0° 188° (S) 3,226 7.7 -8.8°
